Hourly Data Report for March 28, 2017

All times are specified in Local Standard Time (LST). Add 1 hour to adjust for Daylight Saving Time where and when it is observed.

TORONTO INTL A
ONTARIO

43°40'36.000" N
79°37'50.000" W
173.40 m
6158731
71624
YYZ

Download Data

Hourly Data (March 2017)
Hourly Data Report for March 28, 2017
TIME Temp Definition
°C
Dew Point Definition
°C
Rel Hum Definition
%
Wind Dir Definition
10's deg

Wind Spd Definition
km/h
Visibility Definition
km
Stn Press Definition
kPa
Hmdx Definition


Wind Chill Definition


Weather Definition


00:00 10.7 9.5 92 32 14 16.1 99.13     LegendNANA
01:00 9.8 8.7 93 35 15 16.1 99.13     Mostly Cloudy
02:00 8.3 7.6 95 36 14 16.1 99.11     LegendNANA
03:00 6.8 6.1 95 34 18 16.1 99.16     LegendNANA
04:00 5.6 4.9 95 36 12 16.1 99.15     Cloudy
05:00 5.3 4.3 93 36 13 16.1 99.17     LegendNANA
06:00 4.8 3.6 92 35 22 12.9 99.27     LegendNANA
07:00 4.5 2.5 87 35 33 24.1 99.33     Mostly Cloudy
08:00 4.5 2.5 87 36 22 24.1 99.38     LegendNANA
09:00 5.1 2.8 85 35 22 24.1 99.44     LegendNANA
10:00 5.5 3.0 84 36 23 24.1 99.50     Cloudy
11:00 5.7 3.1 83 35 24 24.1 99.50     LegendNANA
12:00 6.4 3.2 80 34 24 24.1 99.48     LegendNANA
13:00 7.8 3.9 76 34 24 24.1 99.49     Mostly Cloudy
14:00 7.7 3.6 75 36 29 24.1 99.50     LegendNANA
15:00 7.3 3.4 76 34 23 24.1 99.55     LegendNANA
16:00 6.7 2.6 75 35 28 24.1 99.63     Mostly Cloudy
17:00 6.2 2.5 77 36 27 24.1 99.71     LegendNANA
18:00 5.4 1.7 77 36 27 24.1 99.79     LegendNANA
19:00 4.7 1.2 78 35 17 24.1 99.89     Mainly Clear
20:00 4.4 1.1 79 35 17 24.1 99.94     LegendNANA
21:00 3.7 -0.5 74 35 17 24.1 100.02     LegendNANA
22:00 3.3 -0.9 74 35 16 24.1 100.06     Clear
23:00 3.3 -1.1 73 35 21 24.1 100.11     LegendNANA

Notes on Data Quality.

Legend

  • E = Estimated
  • M = Missing
  • NA = Not Available*
  • [empty] = Indicates an unobserved value
Date modified: